Date String (YYYY-MM-DD hh:mm:ss) UTC,Instrument flags,Ambient pressure (hPa),Sample flow (lpm),Bypass flow (lpm),Sample temperature (°C),Ambient temperature (°C),ASC tube jacket temperature (°C),LED temperature (°C),Box temperature (°C),Sample RH (%),Span deviation,Mass concentration (μg/m³),Mass concentration (μg/m³),Mass concentration (μg/m³)
DateTimeUTC,F1_M11,P_M11,Q1_M11,Q2_M11,T1_M11,T2_M11,T3_M11,T4_M11,T5_M11,U1_M11,ZSPAN_M11,X0_M11,X2_M11,X1_M11
2022-02-13 15:00:00,,0830.7,4.99,0.00,22.6,22.4,00.0,31.4,24.4,07.9,0000.0,0006.69,0002.73,0002.21
2022-02-13 15:01:00,,0830.7,4.99,0.00,22.6,22.3,00.0,31.4,24.4,08.0,0000.0,0006.56,0002.73,0002.26
2022-02-13 15:02:00,,0830.7,5.01,0.00,22.6,22.3,00.0,31.4,24.4,07.8,0000.0,0006.54,0002.74,0002.31
2022-02-13 15:03:00,,0830.7,5.01,0.00,22.6,22.2,00.0,31.4,24.4,07.7,0000.0,0006.67,0002.79,0002.33
2022-02-13 15:04:00,,0830.7,4.99,0.00,22.6,22.2,00.0,31.4,24.4,07.7,0000.0,0006.84,0002.84,0002.34
2022-02-13 15:05:00,,0830.7,5.01,0.00,22.6,22.1,00.0,31.4,24.4,07.6,0000.0,0006.87,0002.83,0002.33
2022-02-13 15:06:00,,0830.7,5.00,0.00,22.6,22.1,00.0,31.4,24.4,07.5,0000.0,0007.05,0002.80,0002.33
2022-02-13 15:07:00,,0830.7,4.99,0.00,22.6,22.1,00.0,31.5,24.4,07.5,0000.0,0004.94,0002.77,0002.33
2022-02-13 15:08:00,,0830.7,4.99,0.00,22.6,22.1,00.0,31.5,24.4,07.5,0000.0,0004.61,0002.78,0002.33
2022-02-13 15:09:00,,0830.7,5.01,0.00,22.6,22.1,00.0,31.5,24.4,07.4,0000.0,0004.60,0002.77,0002.31
2022-02-13 15:10:00,,0830.7,5.00,0.00,22.6,22.1,00.0,31.5,24.4,07.4,0000.0,0004.66,0002.75,0002.29
2022-02-13 15:11:00,,0830.7,4.99,0.00,22.6,22.1,00.0,31.5,24.4,07.9,0000.0,0004.76,0002.75,0002.28
2022-02-13 15:12:00,,0830.7,5.00,0.00,22.6,22.1,00.0,31.5,24.4,08.7,0000.0,0004.92,0002.79,0002.27
2022-02-13 15:13:00,,0830.8,5.00,0.00,22.6,22.0,00.0,31.5,24.4,08.7,0000.0,0005.38,0002.80,0002.27
2022-02-13 15:14:00,,0830.7,5.00,0.00,22.6,22.0,00.0,31.5,24.4,08.7,0000.0,0005.68,0002.80,0002.26
2022-02-13 15:15:00,,0830.7,5.01,0.00,22.7,22.0,00.0,31.5,24.4,08.6,0000.0,0005.55,0002.78,0002.27
2022-02-13 15:16:00,,0830.7,4.99,0.00,22.7,22.0,00.0,31.5,24.4,08.3,0000.0,0005.63,0002.80,0002.29
2022-02-13 15:17:00,,0830.7,5.01,0.00,22.7,22.1,00.0,31.5,24.4,08.1,0000.0,0005.50,0002.86,0002.30
2022-02-13 15:18:00,,0830.7,4.98,0.00,22.7,22.1,00.0,31.6,24.5,07.9,0000.0,0005.62,0002.88,0002.30
2022-02-13 15:19:00,,0830.7,5.01,0.00,22.7,22.1,00.0,31.6,24.5,07.8,0000.0,0005.61,0002.85,0002.29
2022-02-13 15:20:00,,0830.8,4.99,0.00,22.7,22.1,00.0,31.6,24.5,07.7,0000.0,0005.64,0002.86,0002.31
2022-02-13 15:21:00,,0830.8,5.00,0.00,22.7,22.1,00.0,31.6,24.5,07.6,0000.0,0005.83,0002.92,0002.34
2022-02-13 15:22:00,,0830.7,5.01,0.00,22.7,22.1,00.0,31.6,24.5,07.4,0000.0,0005.87,0002.93,0002.34
2022-02-13 15:23:00,,0830.7,4.99,0.00,22.7,22.1,00.0,31.6,24.5,07.6,0000.0,0005.72,0002.92,0002.35
2022-02-13 15:24:00,,0830.8,5.00,0.00,22.8,22.1,00.0,31.6,24.5,07.7,0000.0,0005.28,0002.90,0002.34
2022-02-13 15:25:00,,0830.8,5.00,0.00,22.8,22.1,00.0,31.6,24.6,07.6,0000.0,0005.54,0002.88,0002.32
2022-02-13 15:26:00,,0830.7,4.98,0.00,22.8,22.1,00.0,31.6,24.5,07.6,0000.0,0005.87,0002.83,0002.31
2022-02-13 15:27:00,,0830.7,5.01,0.00,22.8,22.1,00.0,31.6,24.6,07.7,0000.0,0006.59,0002.83,0002.28
2022-02-13 15:28:00,,0830.7,4.99,0.00,22.8,22.2,00.0,31.6,24.6,07.7,0000.0,0006.47,0002.77,0002.22
2022-02-13 15:29:00,,0830.7,5.00,0.00,22.8,22.2,00.0,31.6,24.6,07.6,0000.0,0006.48,0002.75,0002.19
2022-02-13 15:30:00,,0830.8,4.99,0.00,22.8,22.2,00.0,31.7,24.6,07.6,0000.0,0006.34,0002.69,0002.16
2022-02-13 15:31:00,,0830.7,5.02,0.00,22.8,22.2,00.0,31.7,24.6,07.5,0000.0,0006.35,0002.69,0002.14
2022-02-13 15:32:00,,0830.7,4.99,0.00,22.8,22.2,00.0,31.7,24.6,07.5,0000.0,0006.20,0002.69,0002.13
2022-02-13 15:33:00,,0830.7,5.01,0.00,22.9,22.2,00.0,31.7,24.7,07.5,0000.0,0006.00,0002.64,0002.11
2022-02-13 15:34:00,,0830.7,5.01,0.00,22.9,22.2,00.0,31.7,24.6,07.6,0000.0,0005.88,0002.58,0002.09
2022-02-13 15:35:00,,0830.7,4.99,0.00,22.9,22.2,00.0,31.7,24.7,07.6,0000.0,0005.84,0002.57,0002.09
2022-02-13 15:36:00,,0830.7,5.01,0.00,22.9,22.2,00.0,31.7,24.7,07.4,0000.0,0005.33,0002.59,0002.10
2022-02-13 15:37:00,,0830.7,4.99,0.00,22.9,22.2,00.0,31.7,24.7,07.4,0000.0,0004.94,0002.65,0002.12
2022-02-13 15:38:00,,0830.7,5.01,0.00,22.9,22.3,00.0,31.8,24.7,07.4,0000.0,0004.29,0002.63,0002.13
2022-02-13 15:39:00,,0830.8,4.99,0.00,22.9,22.3,00.0,31.8,24.7,07.4,0000.0,0004.12,0002.64,0002.16
2022-02-13 15:40:00,,0830.7,5.01,0.00,22.9,22.3,00.0,31.8,24.8,07.4,0000.0,0003.99,0002.62,0002.17
2022-02-13 15:41:00,,0830.7,4.98,0.00,22.9,22.3,00.0,31.8,24.8,07.3,0000.0,0004.06,0002.69,0002.22
2022-02-13 15:42:00,,0830.7,5.01,0.00,23.0,22.3,00.0,31.8,24.8,07.3,0000.0,0005.28,0002.71,0002.25
2022-02-13 15:43:00,,0830.7,4.98,0.00,23.0,22.3,00.0,31.8,24.8,07.4,0000.0,0005.44,0002.65,0002.25
2022-02-13 15:44:00,,0830.8,5.01,0.00,23.0,22.3,00.0,31.8,24.8,08.1,0000.0,0005.51,0002.68,0002.27
2022-02-13 15:45:00,,0830.7,4.99,0.00,23.0,22.4,00.0,31.8,24.8,08.7,0000.0,0005.49,0002.67,0002.26
2022-02-13 15:46:00,,0830.7,5.01,0.00,23.0,22.4,00.0,31.9,24.8,08.2,0000.0,0005.50,0002.68,0002.26
2022-02-13 15:47:00,,0830.7,5.00,0.00,23.0,22.4,00.0,31.9,24.9,08.0,0000.0,0005.49,0002.66,0002.26
2022-02-13 15:48:00,,0830.7,5.00,0.00,23.0,22.4,00.0,31.9,24.9,08.5,0000.0,0005.36,0002.64,0002.25
2022-02-13 15:49:00,,0830.7,5.00,0.00,23.0,22.4,00.0,31.9,24.9,08.7,0000.0,0005.30,0002.64,0002.26
2022-02-13 15:50:00,,0830.7,4.99,0.00,23.1,22.4,00.0,31.9,24.9,08.5,0000.0,0005.44,0002.70,0002.26
2022-02-13 15:51:00,,0830.7,5.01,0.00,23.1,22.5,00.0,31.9,24.9,08.2,0000.0,0005.60,0002.71,0002.28
2022-02-13 15:52:00,,0830.7,5.00,0.00,23.1,22.5,00.0,31.9,24.9,07.5,0000.0,0005.69,0002.72,0002.29
2022-02-13 15:53:00,,0830.8,4.99,0.00,23.1,22.5,00.0,31.9,25.0,07.4,0000.0,0004.48,0002.71,0002.28
2022-02-13 15:54:00,,0830.7,5.01,0.00,23.1,22.5,00.0,32.0,25.0,07.3,0000.0,0004.16,0002.74,0002.30
2022-02-13 15:55:00,,0830.7,4.99,0.00,23.2,22.5,00.0,32.0,25.0,07.9,0000.0,0004.22,0002.78,0002.32
2022-02-13 15:56:00,,0830.7,5.01,0.00,23.2,22.5,00.0,32.0,25.0,08.1,0000.0,0004.52,0002.91,0002.40
2022-02-13 15:57:00,,0830.7,4.98,0.00,23.2,22.5,00.0,32.0,25.0,07.7,0000.0,0004.62,0002.97,0002.46
2022-02-13 15:58:00,,0830.7,5.02,0.00,23.2,22.6,00.0,32.0,25.0,08.9,0000.0,0004.77,0003.08,0002.58
2022-02-13 15:59:00,,0830.7,4.99,0.00,23.2,22.6,00.0,32.0,25.1,09.5,0000.0,0005.01,0003.16,0002.72
